START_TIME,STEP,MOV.,AL01,t_acc.,AL02,t_acc.,E37,t_acc.,H21,t_acc.
1979-07-02 00:00:35.230 ,0,0,1.,24.0,0.,24.0,0.,24.0,0.,24.0
1979-07-02 00:00:59.230 ,1,1,0.,24.0,0.,24.0,0.,24.0,0.,24.0
1979-07-02 00:01:23.230 ,1,0,0.,24.0,0.,24.0,0.,24.0,0.,24.0
1979-07-02 00:01:47.230 ,2,1,0.,24.0,0.,24.0,0.,24.0,0.,24.0
1979-07-02 00:02:11.230 ,2,0,0.,24.0,0.,24.0,0.,24.0,0.,24.0
1979-07-02 00:02:35.230 ,3,1,1.,24.0,0.,24.0,0.,24.0,0.,24.0
1979-07-02 00:02:59.230 ,3,0,0.,24.0,0.,24.0,0.,24.0,0.,24.0
1979-07-02 00:03:23.230 ,4,1,0.,24.0,0.,24.0,0.,24.0,0.,24.0
1979-07-02 00:03:47.230 ,4,0,0.,24.0,0.,24.0,0.,24.0,0.,24.0
1979-07-02 00:04:11.230 ,5,1,0.,24.0,0.,24.0,0.,24.0,0.,24.0
1979-07-02 00:04:35.230 ,5,0,1.,24.0,0.,24.0,1.,24.0,0.,24.0
1979-07-02 00:04:59.230 ,6,1,0.,24.0,0.,24.0,0.,24.0,0.,24.0
1979-07-02 00:05:23.230 ,6,0,0.,24.0,0.,24.0,0.,24.0,0.,24.0
1979-07-02 00:05:47.230 ,7,1,11.,24.0,0.,24.0,0.,24.0,0.,24.0
1979-07-02 00:06:11.230 ,7,0,32.,24.0,0.,24.0,0.,24.0,0.,24.0
1979-07-02 00:06:35.230 ,7,1,29.,24.0,0.,24.0,0.,24.0,0.,24.0
1979-07-02 00:06:59.230 ,7,0,29.,24.0,0.,24.0,0.,24.0,0.,24.0
1979-07-02 00:07:23.230 ,6,1,20.,24.0,0.,24.0,0.,24.0,0.,24.0
1979-07-02 00:07:47.230 ,6,0,0.,24.0,0.,24.0,0.,24.0,0.,24.0
1979-07-02 00:08:11.230 ,5,1,0.,24.0,0.,24.0,0.,24.0,0.,24.0
1979-07-02 00:08:35.230 ,5,0,0.,24.0,0.,24.0,0.,24.0,0.,24.0
1979-07-02 00:08:59.230 ,4,1,0.,24.0,1.,24.0,0.,24.0,0.,24.0
1979-07-02 00:09:23.230 ,4,0,0.,24.0,0.,24.0,0.,24.0,0.,24.0
1979-07-02 00:09:47.230 ,3,1,1.,24.0,0.,24.0,1.,24.0,0.,24.0
1979-07-02 00:10:11.230 ,3,0,0.,24.0,0.,24.0,0.,24.0,0.,24.0
1979-07-02 00:10:35.230 ,2,1,1.,24.0,0.,24.0,0.,24.0,0.,24.0
1979-07-02 00:10:59.230 ,2,0,1.,24.0,0.,24.0,0.,24.0,0.,24.0
1979-07-02 00:11:23.230 ,1,1,0.,24.0,0.,24.0,0.,24.0,0.,24.0
1979-07-02 00:11:47.230 ,1,0,0.,24.0,1.,24.0,1.,24.0,0.,24.0
1979-07-02 00:12:11.230 ,0,1,0.,24.0,0.,24.0,0.,24.0,0.,24.0
1979-07-02 00:12:35.230 ,0,0,0.,24.0,0.,24.0,0.,24.0,0.,24.0
1979-07-02 00:12:59.230 ,0,1,0.,24.0,0.,24.0,0.,24.0,0.,24.0
1979-07-02 00:13:23.230 ,0,0,0.,24.0,0.,24.0,0.,24.0,0.,24.0
1979-07-02 00:13:47.230 ,1,1,0.,24.0,0.,24.0,0.,24.0,0.,24.0
1979-07-02 00:14:11.230 ,1,0,1.,24.0,0.,24.0,0.,24.0,0.,24.0
1979-07-02 00:14:35.230 ,2,1,0.,24.0,0.,24.0,0.,24.0,0.,24.0
1979-07-02 00:14:59.230 ,2,0,0.,24.0,0.,24.0,0.,24.0,0.,24.0
1979-07-02 00:15:23.230 ,3,1,0.,24.0,0.,24.0,0.,24.0,0.,24.0
1979-07-02 00:15:47.230 ,3,0,1.,24.0,0.,24.0,1.,24.0,0.,24.0
1979-07-02 00:16:11.230 ,4,1,0.,24.0,0.,24.0,0.,24.0,0.,24.0
1979-07-02 00:16:35.230 ,4,0,0.,24.0,1.,24.0,0.,24.0,0.,24.0
1979-07-02 00:16:59.230 ,5,1,0.,24.0,0.,24.0,0.,24.0,0.,24.0
1979-07-02 00:17:23.230 ,5,0,0.,24.0,0.,24.0,1.,24.0,0.,24.0
1979-07-02 00:17:47.230 ,6,1,0.,24.0,0.,24.0,0.,24.0,0.,24.0
1979-07-02 00:18:11.230 ,6,0,0.,24.0,0.,24.0,0.,24.0,0.,24.0
1979-07-02 00:18:35.230 ,7,0,9.,24.0,0.,24.0,0.,24.0,0.,24.0
1979-07-02 00:18:59.230 ,7,0,37.,24.0,0.,24.0,0.,24.0,0.,24.0
1979-07-02 00:19:23.230 ,5,1,12.,24.0,0.,24.0,0.,24.0,0.,24.0
1979-07-02 00:19:47.230 ,1,1,1.,24.0,0.,24.0,1.,24.0,0.,24.0
1979-07-02 00:20:11.230 ,2,1,0.,24.0,0.,24.0,0.,24.0,0.,24.0
1979-07-02 00:20:35.230 ,6,1,0.,24.0,0.,24.0,0.,24.0,0.,24.0
1979-07-02 00:20:59.230 ,5,1,15.,24.0,0.,24.0,0.,24.0,0.,24.0
1979-07-02 00:21:23.230 ,1,1,0.,24.0,0.,24.0,0.,24.0,0.,24.0
1979-07-02 00:21:47.230 ,2,1,0.,24.0,0.,24.0,0.,24.0,0.,24.0
1979-07-02 00:22:11.230 ,6,1,0.,24.0,0.,24.0,0.,24.0,0.,24.0
1979-07-02 00:22:35.230 ,5,1,11.,24.0,0.,24.0,0.,24.0,0.,24.0
1979-07-02 00:22:59.230 ,1,1,1.,24.0,0.,24.0,0.,24.0,0.,24.0
1979-07-02 00:23:23.230 ,2,1,0.,24.0,0.,24.0,0.,24.0,0.,24.0
1979-07-02 00:23:47.230 ,6,1,0.,24.0,0.,24.0,0.,24.0,0.,24.0
1979-07-02 00:24:11.230 ,5,1,21.,24.0,0.,24.0,0.,24.0,0.,24.0
1979-07-02 00:24:35.230 ,1,1,0.,24.0,0.,24.0,0.,24.0,0.,24.0
1979-07-02 00:24:59.230 ,2,1,0.,24.0,0.,24.0,0.,24.0,0.,24.0
1979-07-02 00:25:23.230 ,6,1,0.,24.0,0.,24.0,0.,24.0,0.,24.0
1979-07-02 00:25:47.230 ,5,1,20.,24.0,0.,24.0,0.,24.0,0.,24.0
1979-07-02 00:26:11.230 ,1,1,0.,24.0,0.,24.0,0.,24.0,0.,24.0
1979-07-02 00:26:35.230 ,2,1,1.,24.0,0.,24.0,1.,24.0,0.,24.0
1979-07-02 00:26:59.230 ,6,1,0.,24.0,0.,24.0,0.,24.0,0.,24.0
1979-07-02 00:27:23.230 ,5,1,15.,24.0,0.,24.0,0.,24.0,0.,24.0
1979-07-02 00:27:47.230 ,1,1,0.,24.0,0.,24.0,0.,24.0,0.,24.0
1979-07-02 00:28:11.230 ,2,1,0.,24.0,0.,24.0,0.,24.0,0.,24.0
1979-07-02 00:28:35.230 ,6,1,0.,24.0,0.,24.0,1.,24.0,0.,24.0
1979-07-02 00:28:59.230 ,5,1,23.,24.0,0.,24.0,0.,24.0,0.,24.0
1979-07-02 00:29:23.230 ,1,1,1.,24.0,0.,24.0,0.,24.0,0.,24.0
1979-07-02 00:29:47.230 ,0,0,0.,24.0,0.,24.0,0.,24.0,0.,24.0
1979-07-02 00:30:11.230 ,0,0,0.,24.0,0.,24.0,0.,24.0,0.,24.0
1979-07-02 00:30:35.230 ,5,1,15.,24.0,0.,24.0,0.,24.0,0.,24.0
1979-07-02 00:30:59.230 ,5,0,0.,24.0,0.,24.0,0.,24.0,0.,24.0
1979-07-02 00:31:23.230 ,4,1,0.,24.0,0.,24.0,0.,24.0,0.,24.0
1979-07-02 00:31:47.230 ,4,0,1.,24.0,0.,24.0,0.,24.0,0.,24.0
1979-07-02 00:32:11.230 ,3,1,0.,24.0,0.,24.0,0.,24.0,0.,24.0
1979-07-02 00:32:35.230 ,3,0,1.,24.0,0.,24.0,0.,24.0,0.,24.0
1979-07-02 00:32:59.230 ,2,1,0.,24.0,0.,24.0,0.,24.0,0.,24.0
1979-07-02 00:33:23.230 ,2,0,0.,24.0,0.,24.0,0.,24.0,0.,24.0
1979-07-02 00:33:47.230 ,1,1,0.,24.0,0.,24.0,0.,24.0,0.,24.0
1979-07-02 00:34:11.230 ,1,0,0.,24.0,0.,24.0,0.,24.0,0.,24.0
1979-07-02 00:34:35.230 ,0,1,0.,24.0,0.,24.0,0.,24.0,0.,24.0
1979-07-02 00:34:59.230 ,0,0,1.,24.0,0.,24.0,1.,24.0,0.,24.0
1979-07-02 00:35:23.230 ,0,1,0.,24.0,0.,24.0,0.,24.0,0.,24.0
1979-07-02 00:35:47.230 ,0,0,1.,24.0,0.,24.0,0.,24.0,0.,24.0
1979-07-02 00:36:11.230 ,1,1,1.,24.0,0.,24.0,0.,24.0,0.,24.0
1979-07-02 00:36:35.230 ,1,0,0.,24.0,0.,24.0,1.,24.0,0.,24.0
1979-07-02 00:36:59.230 ,2,1,1.,24.0,0.,24.0,0.,24.0,0.,24.0
1979-07-02 00:37:23.230 ,2,0,0.,24.0,0.,24.0,0.,24.0,0.,24.0
1979-07-02 00:37:47.230 ,3,1,0.,24.0,0.,24.0,0.,24.0,0.,24.0
1979-07-02 00:38:11.230 ,3,0,0.,24.0,0.,24.0,0.,24.0,0.,24.0
1979-07-02 00:38:35.230 ,4,1,0.,24.0,0.,24.0,0.,24.0,0.,24.0
1979-07-02 00:38:59.230 ,4,0,0.,24.0,0.,24.0,0.,24.0,0.,24.0
1979-07-02 00:39:23.230 ,5,1,0.,24.0,0.,24.0,0.,24.0,0.,24.0
1979-07-02 00:39:47.230 ,0,0,0.,24.0,0.,24.0,0.,24.0,0.,24.0
1979-07-02 00:40:16.630 ,0,0,0.,24.0,0.,24.0,0.,24.0,0.,24.0
1979-07-02 00:40:35.230 ,0,0,0.,24.0,0.,24.0,0.,24.0,0.,24.0
1979-07-02 00:40:59.230 ,7,1,9.,24.0,0.,24.0,0.,24.0,0.,24.0
1979-07-02 00:41:23.230 ,7,0,26.,24.0,0.,24.0,1.,24.0,0.,24.0
1979-07-02 00:41:47.230 ,7,1,26.,24.0,0.,24.0,0.,24.0,0.,24.0
1979-07-02 00:42:11.230 ,7,0,28.,24.0,0.,24.0,0.,24.0,0.,24.0
1979-07-02 00:42:35.230 ,6,1,30.,24.0,0.,24.0,0.,24.0,0.,24.0
1979-07-02 00:42:59.230 ,6,0,0.,24.0,0.,24.0,2.,24.0,0.,24.0
1979-07-02 00:43:23.230 ,5,1,0.,24.0,0.,24.0,0.,24.0,0.,24.0
1979-07-02 00:43:47.230 ,5,0,0.,24.0,0.,24.0,0.,24.0,0.,24.0
1979-07-02 00:44:11.230 ,4,1,1.,24.0,0.,24.0,1.,24.0,0.,24.0
1979-07-02 00:44:35.230 ,4,0,0.,24.0,0.,24.0,0.,24.0,0.,24.0
1979-07-02 00:44:59.230 ,3,1,0.,24.0,0.,24.0,0.,24.0,0.,24.0
1979-07-02 00:45:23.230 ,3,0,0.,24.0,0.,24.0,0.,24.0,0.,24.0
1979-07-02 00:45:47.230 ,2,1,0.,24.0,0.,24.0,1.,24.0,0.,24.0
1979-07-02 00:46:11.230 ,2,0,0.,24.0,1.,24.0,0.,24.0,0.,24.0
1979-07-02 00:46:35.230 ,1,1,0.,24.0,0.,24.0,1.,24.0,0.,24.0
1979-07-02 00:46:59.230 ,1,0,0.,24.0,0.,24.0,0.,24.0,0.,24.0
1979-07-02 00:47:23.230 ,0,1,0.,24.0,0.,24.0,1.,24.0,0.,24.0
1979-07-02 00:47:47.230 ,0,0,0.,24.0,0.,24.0,0.,24.0,0.,24.0
1979-07-02 00:48:11.230 ,0,1,0.,24.0,0.,24.0,0.,24.0,0.,24.0
1979-07-02 00:48:35.230 ,0,0,0.,24.0,0.,24.0,0.,24.0,0.,24.0
1979-07-02 00:48:59.230 ,1,1,0.,24.0,0.,24.0,1.,24.0,0.,24.0
1979-07-02 00:49:23.230 ,1,0,0.,24.0,0.,24.0,0.,24.0,0.,24.0
1979-07-02 00:49:47.230 ,2,1,0.,24.0,0.,24.0,1.,24.0,0.,24.0
1979-07-02 00:50:11.230 ,2,0,1.,24.0,0.,24.0,0.,24.0,0.,24.0
1979-07-02 00:50:35.220 ,3,1,0.,24.0,0.,24.0,0.,24.0,0.,24.0
1979-07-02 00:50:59.220 ,3,0,2.,24.0,0.,24.0,0.,24.0,0.,24.0
1979-07-02 00:51:23.220 ,4,1,1.,24.0,0.,24.0,0.,24.0,0.,24.0
1979-07-02 00:51:47.220 ,4,0,1.,24.0,0.,24.0,0.,24.0,0.,24.0
1979-07-02 00:52:11.220 ,5,1,0.,24.0,0.,24.0,0.,24.0,0.,24.0
1979-07-02 00:52:35.220 ,5,0,0.,24.0,0.,24.0,0.,24.0,0.,24.0
1979-07-02 00:52:59.220 ,6,1,0.,24.0,0.,24.0,0.,24.0,0.,24.0
1979-07-02 00:53:23.220 ,6,0,0.,24.0,0.,24.0,0.,24.0,0.,24.0
1979-07-02 00:53:47.220 ,7,1,12.,24.0,0.,24.0,0.,24.0,0.,24.0
1979-07-02 00:54:11.220 ,7,0,33.,24.0,0.,24.0,0.,24.0,0.,24.0
1979-07-02 00:54:35.220 ,7,1,26.,24.0,0.,24.0,1.,24.0,0.,24.0
1979-07-02 00:54:59.220 ,7,0,35.,24.0,0.,24.0,0.,24.0,0.,24.0
1979-07-02 00:56:11.220 ,0,0,1.,24.0,0.,24.0,0.,24.0,0.,24.0
1979-07-02 00:56:35.220 ,0,0,1.,24.0,0.,24.0,1.,24.0,0.,24.0
1979-07-02 00:56:59.220 ,4,1,0.,24.0,0.,24.0,0.,24.0,0.,24.0
1979-07-02 00:57:23.220 ,4,0,0.,24.0,0.,24.0,0.,24.0,0.,24.0
1979-07-02 00:57:47.220 ,3,1,0.,24.0,0.,24.0,0.,24.0,0.,24.0
1979-07-02 00:58:11.220 ,3,0,1.,24.0,0.,24.0,1.,24.0,0.,24.0
1979-07-02 00:58:35.220 ,2,1,0.,24.0,0.,24.0,0.,24.0,0.,24.0
1979-07-02 00:58:59.220 ,2,0,0.,24.0,0.,24.0,0.,24.0,0.,24.0
1979-07-02 00:59:23.220 ,1,1,2.,24.0,0.,24.0,0.,24.0,0.,24.0
1979-07-02 00:59:47.220 ,1,0,0.,24.0,0.,24.0,0.,24.0,0.,24.0
1979-07-02 01:00:11.220 ,0,1,0.,24.0,0.,24.0,0.,24.0,0.,24.0
1979-07-02 01:00:35.220 ,0,0,1.,24.0,1.,24.0,0.,24.0,0.,24.0
1979-07-02 01:00:59.220 ,0,1,0.,24.0,0.,24.0,0.,24.0,0.,24.0
1979-07-02 01:01:23.220 ,0,0,0.,24.0,0.,24.0,0.,24.0,0.,24.0
1979-07-02 01:01:47.220 ,1,1,0.,24.0,0.,24.0,0.,24.0,0.,24.0
1979-07-02 01:02:11.220 ,1,0,2.,24.0,0.,24.0,0.,24.0,0.,24.0
1979-07-02 01:02:35.220 ,2,1,0.,24.0,0.,24.0,0.,24.0,0.,24.0
1979-07-02 01:02:59.220 ,2,0,0.,24.0,0.,24.0,0.,24.0,0.,24.0
1979-07-02 01:03:23.220 ,3,1,0.,24.0,0.,24.0,0.,24.0,0.,24.0
1979-07-02 01:03:47.220 ,3,0,0.,24.0,0.,24.0,0.,24.0,0.,24.0
1979-07-02 01:04:11.220 ,4,1,0.,24.0,0.,24.0,1.,24.0,0.,24.0
1979-07-02 01:04:35.220 ,4,0,1.,24.0,0.,24.0,3.,24.0,0.,24.0
1979-07-02 01:04:59.220 ,5,1,0.,24.0,0.,24.0,0.,24.0,0.,24.0
1979-07-02 01:05:23.220 ,5,0,0.,24.0,0.,24.0,0.,24.0,0.,24.0
1979-07-02 01:05:47.220 ,6,1,0.,24.0,0.,24.0,1.,24.0,0.,24.0
1979-07-02 01:06:11.220 ,6,0,0.,24.0,0.,24.0,0.,24.0,0.,24.0
1979-07-02 01:06:35.220 ,7,0,11.,24.0,0.,24.0,0.,24.0,0.,24.0
1979-07-02 01:06:59.220 ,7,0,29.,24.0,0.,24.0,0.,24.0,0.,24.0
1979-07-02 01:07:23.220 ,5,1,15.,24.0,0.,24.0,1.,24.0,0.,24.0
1979-07-02 01:07:47.220 ,1,1,0.,24.0,1.,24.0,1.,24.0,0.,24.0
1979-07-02 01:08:11.220 ,2,1,0.,24.0,0.,24.0,0.,24.0,0.,24.0
1979-07-02 01:08:35.220 ,6,1,0.,24.0,0.,24.0,0.,24.0,0.,24.0
1979-07-02 01:08:59.220 ,5,1,23.,24.0,0.,24.0,0.,24.0,0.,24.0
1979-07-02 01:09:23.220 ,1,1,0.,24.0,0.,24.0,0.,24.0,0.,24.0
1979-07-02 01:09:47.220 ,2,1,1.,24.0,0.,24.0,0.,24.0,0.,24.0
1979-07-02 01:10:11.220 ,6,1,0.,24.0,1.,24.0,0.,24.0,0.,24.0
1979-07-02 01:10:35.220 ,5,1,13.,24.0,1.,24.0,1.,24.0,0.,24.0
1979-07-02 01:10:59.220 ,1,1,0.,24.0,0.,24.0,1.,24.0,0.,24.0
1979-07-02 01:11:23.220 ,2,1,0.,24.0,0.,24.0,0.,24.0,0.,24.0
1979-07-02 01:11:47.220 ,6,1,0.,24.0,0.,24.0,2.,24.0,0.,24.0
1979-07-02 01:12:11.220 ,5,1,12.,24.0,0.,24.0,0.,24.0,0.,24.0
1979-07-02 01:12:35.220 ,1,1,1.,24.0,0.,24.0,0.,24.0,0.,24.0
1979-07-02 01:12:59.220 ,2,1,0.,24.0,0.,24.0,0.,24.0,0.,24.0
1979-07-02 01:13:23.220 ,6,1,0.,24.0,0.,24.0,0.,24.0,0.,24.0
1979-07-02 01:13:47.220 ,5,1,25.,24.0,0.,24.0,0.,24.0,0.,24.0
1979-07-02 01:14:11.220 ,1,1,0.,24.0,0.,24.0,0.,24.0,0.,24.0
1979-07-02 01:14:35.220 ,2,1,0.,24.0,0.,24.0,0.,24.0,0.,24.0
1979-07-02 01:14:59.220 ,6,1,1.,24.0,0.,24.0,0.,24.0,0.,24.0
1979-07-02 01:15:23.220 ,5,1,13.,24.0,0.,24.0,0.,24.0,0.,24.0
1979-07-02 01:15:47.220 ,1,1,0.,24.0,0.,24.0,0.,24.0,0.,24.0
1979-07-02 01:16:11.220 ,2,1,0.,24.0,0.,24.0,0.,24.0,0.,24.0
1979-07-02 01:16:35.220 ,6,1,0.,24.0,0.,24.0,0.,24.0,0.,24.0
1979-07-02 01:16:59.220 ,5,1,13.,24.0,0.,24.0,0.,24.0,0.,24.0
1979-07-02 01:17:23.220 ,1,1,0.,24.0,0.,24.0,1.,24.0,0.,24.0
1979-07-02 01:17:47.220 ,0,0,0.,24.0,0.,24.0,0.,24.0,0.,24.0
1979-07-02 01:18:11.220 ,0,0,0.,24.0,0.,24.0,0.,24.0,0.,24.0
1979-07-02 01:18:35.220 ,5,1,13.,24.0,0.,24.0,0.,24.0,0.,24.0
1979-07-02 01:18:59.220 ,5,0,0.,24.0,0.,24.0,0.,24.0,0.,24.0
1979-07-02 01:19:23.220 ,4,1,0.,24.0,0.,24.0,0.,24.0,0.,24.0
1979-07-02 01:19:47.220 ,4,0,0.,24.0,0.,24.0,2.,24.0,0.,24.0
1979-07-02 01:20:11.220 ,3,1,0.,24.0,0.,24.0,0.,24.0,0.,24.0
1979-07-02 01:20:35.220 ,3,0,0.,24.0,0.,24.0,0.,24.0,0.,24.0
1979-07-02 01:20:59.220 ,2,1,0.,24.0,0.,24.0,0.,24.0,0.,24.0
1979-07-02 01:21:23.220 ,2,0,0.,24.0,0.,24.0,0.,24.0,0.,24.0
1979-07-02 01:21:47.220 ,1,1,1.,24.0,0.,24.0,1.,24.0,0.,24.0
1979-07-02 01:22:11.220 ,1,0,0.,24.0,0.,24.0,0.,24.0,0.,24.0
1979-07-02 01:22:35.220 ,0,1,1.,24.0,0.,24.0,0.,24.0,0.,24.0
1979-07-02 01:22:59.220 ,0,0,1.,24.0,0.,24.0,0.,24.0,0.,24.0
1979-07-02 01:23:23.220 ,0,1,1.,24.0,0.,24.0,0.,24.0,0.,24.0
1979-07-02 01:23:47.220 ,0,0,0.,24.0,2.,24.0,0.,24.0,0.,24.0
1979-07-02 01:24:11.220 ,1,1,1.,24.0,0.,24.0,1.,24.0,0.,24.0
1979-07-02 01:24:35.220 ,1,0,0.,24.0,0.,24.0,1.,24.0,0.,24.0
1979-07-02 01:24:59.220 ,2,1,0.,24.0,0.,24.0,0.,24.0,0.,24.0
1979-07-02 01:25:23.220 ,2,0,0.,24.0,0.,24.0,0.,24.0,0.,24.0
1979-07-02 01:25:47.220 ,3,1,0.,24.0,1.,24.0,0.,24.0,0.,24.0
1979-07-02 01:26:11.220 ,3,0,0.,24.0,1.,24.0,0.,24.0,0.,24.0
1979-07-02 01:26:35.220 ,4,1,1.,24.0,0.,24.0,0.,24.0,0.,24.0
1979-07-02 01:26:59.220 ,4,0,2.,24.0,0.,24.0,0.,24.0,0.,24.0
1979-07-02 01:27:23.220 ,5,1,1.,24.0,0.,24.0,1.,24.0,0.,24.0
1979-07-02 01:27:47.220 ,5,0,0.,24.0,0.,24.0,0.,24.0,0.,24.0
1979-07-02 01:28:11.220 ,6,1,0.,24.0,0.,24.0,0.,24.0,0.,24.0
1979-07-02 01:28:35.220 ,6,0,0.,24.0,0.,24.0,0.,24.0,0.,24.0
1979-07-02 01:28:59.220 ,7,1,5.,24.0,0.,24.0,0.,24.0,0.,24.0
1979-07-02 01:29:23.220 ,7,0,21.,24.0,1.,24.0,0.,24.0,0.,24.0
1979-07-02 01:29:47.220 ,7,1,33.,24.0,0.,24.0,0.,24.0,0.,24.0
1979-07-02 01:30:11.220 ,7,0,42.,24.0,0.,24.0,0.,24.0,0.,24.0
1979-07-02 01:30:35.220 ,6,1,20.,24.0,0.,24.0,0.,24.0,0.,24.0
1979-07-02 01:30:59.220 ,6,0,0.,24.0,0.,24.0,0.,24.0,0.,24.0
1979-07-02 01:31:23.220 ,5,1,1.,24.0,0.,24.0,0.,24.0,0.,24.0
1979-07-02 01:31:47.220 ,5,0,0.,24.0,0.,24.0,0.,24.0,0.,24.0
1979-07-02 01:32:11.220 ,4,1,0.,24.0,0.,24.0,0.,24.0,0.,24.0
1979-07-02 01:32:35.220 ,4,0,0.,24.0,0.,24.0,0.,24.0,0.,24.0
1979-07-02 01:32:59.220 ,3,1,0.,24.0,0.,24.0,1.,24.0,0.,24.0
1979-07-02 01:33:23.220 ,3,0,0.,24.0,0.,24.0,0.,24.0,0.,24.0
1979-07-02 01:33:47.220 ,2,1,0.,24.0,0.,24.0,0.,24.0,0.,24.0
1979-07-02 01:34:11.220 ,2,0,0.,24.0,0.,24.0,0.,24.0,0.,24.0
1979-07-02 01:34:35.220 ,1,1,0.,24.0,0.,24.0,0.,24.0,0.,24.0
1979-07-02 01:34:59.220 ,1,0,0.,24.0,0.,24.0,0.,24.0,0.,24.0
1979-07-02 01:35:23.220 ,0,1,0.,24.0,0.,24.0,0.,24.0,0.,24.0
1979-07-02 01:35:47.220 ,0,0,0.,24.0,0.,24.0,0.,24.0,0.,24.0
1979-07-02 01:36:11.220 ,0,1,0.,24.0,0.,24.0,0.,24.0,0.,24.0
1979-07-02 01:36:35.220 ,0,0,0.,24.0,0.,24.0,0.,24.0,0.,24.0
1979-07-02 01:36:59.220 ,1,1,0.,24.0,0.,24.0,1.,24.0,0.,24.0
1979-07-02 01:37:23.220 ,1,0,0.,24.0,0.,24.0,0.,24.0,0.,24.0
1979-07-02 01:37:47.220 ,2,1,0.,24.0,0.,24.0,0.,24.0,0.,24.0
1979-07-02 01:38:11.220 ,2,0,1.,24.0,0.,24.0,0.,24.0,0.,24.0
1979-07-02 01:38:35.220 ,3,1,1.,24.0,0.,24.0,0.,24.0,0.,24.0
1979-07-02 01:38:59.220 ,3,0,0.,24.0,1.,24.0,0.,24.0,0.,24.0
1979-07-02 01:39:23.220 ,4,1,0.,24.0,0.,24.0,0.,24.0,0.,24.0
1979-07-02 01:39:47.220 ,4,0,0.,24.0,0.,24.0,0.,24.0,0.,24.0
1979-07-02 01:40:11.220 ,5,1,1.,24.0,0.,24.0,0.,24.0,0.,24.0
1979-07-02 01:40:35.220 ,5,0,0.,24.0,0.,24.0,0.,24.0,0.,24.0
1979-07-02 01:40:59.220 ,6,1,0.,24.0,0.,24.0,0.,24.0,0.,24.0
1979-07-02 01:41:23.220 ,6,0,0.,24.0,0.,24.0,0.,24.0,0.,24.0
1979-07-02 01:41:47.220 ,7,1,9.,24.0,0.,24.0,1.,24.0,0.,24.0
1979-07-02 01:42:11.220 ,7,0,27.,24.0,0.,24.0,0.,24.0,0.,24.0
1979-07-02 01:42:35.220 ,7,1,33.,24.0,0.,24.0,0.,24.0,0.,24.0
1979-07-02 01:42:59.220 ,7,0,27.,24.0,0.,24.0,0.,24.0,0.,24.0
1979-07-02 01:43:23.220 ,6,1,15.,24.0,0.,24.0,1.,24.0,0.,24.0
1979-07-02 01:43:47.220 ,6,0,0.,24.0,0.,24.0,1.,24.0,0.,24.0
1979-07-02 01:44:11.220 ,5,1,0.,24.0,0.,24.0,0.,24.0,0.,24.0
1979-07-02 01:44:35.220 ,5,0,0.,24.0,0.,24.0,0.,24.0,0.,24.0
1979-07-02 01:44:59.220 ,4,1,0.,24.0,0.,24.0,1.,24.0,0.,24.0
1979-07-02 01:45:23.220 ,4,0,0.,24.0,0.,24.0,0.,24.0,0.,24.0
1979-07-02 01:45:47.220 ,3,1,0.,24.0,0.,24.0,0.,24.0,0.,24.0
1979-07-02 01:46:11.220 ,3,0,0.,24.0,0.,24.0,0.,24.0,0.,24.0
1979-07-02 01:46:35.220 ,2,1,1.,24.0,0.,24.0,0.,24.0,0.,24.0
1979-07-02 01:46:59.220 ,2,0,0.,24.0,0.,24.0,0.,24.0,0.,24.0
1979-07-02 01:47:23.220 ,1,1,1.,24.0,0.,24.0,0.,24.0,0.,24.0
1979-07-02 01:47:47.220 ,1,0,0.,24.0,0.,24.0,0.,24.0,0.,24.0
1979-07-02 01:48:11.220 ,0,1,1.,24.0,0.,24.0,0.,24.0,0.,24.0
1979-07-02 01:48:35.220 ,0,0,0.,24.0,0.,24.0,0.,24.0,0.,24.0
1979-07-02 01:48:59.220 ,0,1,0.,24.0,0.,24.0,1.,24.0,0.,24.0
1979-07-02 01:49:23.220 ,0,0,0.,24.0,0.,24.0,0.,24.0,0.,24.0
1979-07-02 01:49:47.220 ,1,1,0.,24.0,0.,24.0,0.,24.0,0.,24.0
1979-07-02 01:50:11.220 ,1,0,0.,24.0,0.,24.0,0.,24.0,0.,24.0
1979-07-02 01:50:35.220 ,2,1,1.,24.0,0.,24.0,0.,24.0,0.,24.0
1979-07-02 01:50:59.220 ,2,0,1.,24.0,0.,24.0,0.,24.0,0.,24.0
1979-07-02 01:51:23.220 ,3,1,0.,24.0,0.,24.0,0.,24.0,0.,24.0
1979-07-02 01:51:47.220 ,3,0,0.,24.0,0.,24.0,0.,24.0,0.,24.0
1979-07-02 01:52:11.220 ,4,1,0.,24.0,0.,24.0,0.,24.0,0.,24.0
1979-07-02 01:52:35.220 ,4,0,0.,24.0,0.,24.0,0.,24.0,0.,24.0
1979-07-02 01:52:59.220 ,5,1,1.,24.0,0.,24.0,0.,24.0,0.,24.0
1979-07-02 01:53:23.220 ,5,0,0.,24.0,0.,24.0,0.,24.0,0.,24.0
1979-07-02 01:53:47.220 ,6,1,0.,24.0,0.,24.0,0.,24.0,0.,24.0
1979-07-02 01:54:11.220 ,6,0,0.,24.0,0.,24.0,0.,24.0,0.,24.0
1979-07-02 01:54:35.220 ,7,0,9.,24.0,0.,24.0,0.,24.0,0.,24.0
1979-07-02 01:54:59.220 ,7,0,32.,24.0,0.,24.0,0.,24.0,0.,24.0
1979-07-02 01:55:23.220 ,5,1,16.,24.0,1.,24.0,0.,24.0,0.,24.0
1979-07-02 01:55:47.220 ,1,1,1.,24.0,0.,24.0,0.,24.0,0.,24.0
1979-07-02 01:56:11.220 ,2,1,0.,24.0,0.,24.0,0.,24.0,0.,24.0
1979-07-02 01:56:35.220 ,6,1,0.,24.0,0.,24.0,0.,24.0,0.,24.0
1979-07-02 01:56:59.220 ,5,1,15.,24.0,0.,24.0,0.,24.0,0.,24.0
1979-07-02 01:57:23.220 ,1,1,0.,24.0,0.,24.0,0.,24.0,0.,24.0
1979-07-02 01:57:47.220 ,2,1,0.,24.0,0.,24.0,0.,24.0,0.,24.0
1979-07-02 01:58:11.220 ,6,1,0.,24.0,0.,24.0,0.,24.0,0.,24.0
1979-07-02 01:58:35.220 ,5,1,19.,24.0,0.,24.0,1.,24.0,0.,24.0
1979-07-02 01:58:59.220 ,1,1,0.,24.0,0.,24.0,0.,24.0,0.,24.0
1979-07-02 01:59:23.220 ,2,1,0.,24.0,0.,24.0,0.,24.0,0.,24.0
1979-07-02 01:59:47.220 ,6,1,0.,24.0,0.,24.0,1.,24.0,0.,24.0
1979-07-02 02:00:11.220 ,5,1,10.,24.0,0.,24.0,0.,24.0,0.,24.0
1979-07-02 02:00:35.220 ,1,1,0.,24.0,0.,24.0,0.,24.0,0.,24.0
1979-07-02 02:00:59.220 ,2,1,0.,24.0,0.,24.0,0.,24.0,0.,24.0
1979-07-02 02:01:23.220 ,6,1,1.,24.0,0.,24.0,1.,24.0,0.,24.0
1979-07-02 02:01:47.220 ,5,1,13.,24.0,0.,24.0,1.,24.0,0.,24.0
1979-07-02 02:02:11.220 ,1,1,0.,24.0,0.,24.0,0.,24.0,0.,24.0
1979-07-02 02:02:35.220 ,2,1,0.,24.0,0.,24.0,0.,24.0,0.,24.0
1979-07-02 02:02:59.220 ,6,1,0.,24.0,1.,24.0,0.,24.0,0.,24.0
1979-07-02 02:03:23.220 ,5,1,14.,24.0,0.,24.0,0.,24.0,0.,24.0
1979-07-02 02:03:47.220 ,1,1,1.,24.0,0.,24.0,0.,24.0,0.,24.0
1979-07-02 02:04:11.220 ,2,1,1.,24.0,1.,24.0,0.,24.0,0.,24.0
1979-07-02 02:04:35.220 ,6,1,0.,24.0,0.,24.0,0.,24.0,0.,24.0
1979-07-02 02:04:59.220 ,5,1,16.,24.0,0.,24.0,0.,24.0,0.,24.0
1979-07-02 02:05:23.220 ,1,1,2.,24.0,0.,24.0,0.,24.0,0.,24.0
1979-07-02 02:05:47.220 ,0,0,0.,24.0,0.,24.0,0.,24.0,0.,24.0
1979-07-02 02:06:11.220 ,0,0,0.,24.0,0.,24.0,0.,24.0,0.,24.0
1979-07-02 02:06:35.220 ,5,1,10.,24.0,0.,24.0,0.,24.0,0.,24.0
1979-07-02 02:06:59.220 ,5,0,0.,24.0,0.,24.0,0.,24.0,0.,24.0
1979-07-02 02:07:23.220 ,4,1,0.,24.0,0.,24.0,0.,24.0,0.,24.0
1979-07-02 02:07:47.220 ,4,0,0.,24.0,0.,24.0,2.,24.0,0.,24.0
1979-07-02 02:08:11.220 ,3,1,0.,24.0,0.,24.0,0.,24.0,0.,24.0
1979-07-02 02:08:35.220 ,3,0,0.,24.0,0.,24.0,0.,24.0,0.,24.0
1979-07-02 02:08:59.220 ,2,1,0.,24.0,0.,24.0,0.,24.0,0.,24.0
1979-07-02 02:09:23.220 ,2,0,0.,24.0,0.,24.0,0.,24.0,0.,24.0
1979-07-02 02:09:47.220 ,1,1,0.,24.0,0.,24.0,0.,24.0,0.,24.0
1979-07-02 02:10:11.220 ,1,0,0.,24.0,0.,24.0,0.,24.0,0.,24.0
1979-07-02 02:10:35.220 ,0,1,0.,24.0,0.,24.0,0.,24.0,0.,24.0
1979-07-02 02:10:59.220 ,0,0,0.,24.0,0.,24.0,0.,24.0,0.,24.0
1979-07-02 02:11:23.220 ,0,1,0.,24.0,0.,24.0,0.,24.0,0.,24.0
1979-07-02 02:11:47.220 ,0,0,1.,24.0,0.,24.0,1.,24.0,0.,24.0
1979-07-02 02:12:11.220 ,1,1,0.,24.0,0.,24.0,0.,24.0,0.,24.0
1979-07-02 02:12:35.220 ,1,0,1.,24.0,0.,24.0,0.,24.0,0.,24.0
1979-07-02 02:12:59.220 ,2,1,1.,24.0,0.,24.0,0.,24.0,0.,24.0
1979-07-02 02:13:23.220 ,2,0,0.,24.0,0.,24.0,0.,24.0,0.,24.0
1979-07-02 02:13:47.220 ,3,1,2.,24.0,0.,24.0,0.,24.0,0.,24.0
1979-07-02 02:14:11.220 ,3,0,0.,24.0,0.,24.0,0.,24.0,0.,24.0
1979-07-02 02:14:35.220 ,4,1,0.,24.0,0.,24.0,1.,24.0,0.,24.0
1979-07-02 02:14:59.220 ,4,0,1.,24.0,0.,24.0,0.,24.0,0.,24.0
1979-07-02 02:16:11.220 ,0,0,0.,24.0,0.,24.0,0.,24.0,0.,24.0
1979-07-02 02:16:35.220 ,0,0,1.,24.0,0.,24.0,0.,24.0,0.,24.0
1979-07-02 02:16:59.220 ,7,1,2.,24.0,1.,24.0,1.,24.0,0.,24.0
1979-07-02 02:17:23.220 ,7,0,21.,24.0,0.,24.0,1.,24.0,0.,24.0
1979-07-02 02:17:47.220 ,7,1,29.,24.0,0.,24.0,0.,24.0,0.,24.0
1979-07-02 02:18:11.220 ,7,0,26.,24.0,0.,24.0,0.,24.0,0.,24.0
1979-07-02 02:18:35.220 ,6,1,29.,24.0,0.,24.0,0.,24.0,0.,24.0
1979-07-02 02:18:59.220 ,6,0,0.,24.0,0.,24.0,0.,24.0,0.,24.0
1979-07-02 02:19:23.220 ,5,1,0.,24.0,0.,24.0,0.,24.0,0.,24.0
1979-07-02 02:19:47.220 ,5,0,0.,24.0,0.,24.0,1.,24.0,0.,24.0
1979-07-02 02:20:11.220 ,4,1,0.,24.0,0.,24.0,1.,24.0,0.,24.0
1979-07-02 02:20:35.220 ,4,0,0.,24.0,0.,24.0,2.,24.0,0.,24.0
1979-07-02 02:20:59.220 ,3,1,1.,24.0,0.,24.0,0.,24.0,0.,24.0
1979-07-02 02:21:23.220 ,3,0,0.,24.0,0.,24.0,0.,24.0,0.,24.0
1979-07-02 02:21:47.220 ,2,1,0.,24.0,0.,24.0,0.,24.0,0.,24.0
1979-07-02 02:22:11.220 ,2,0,0.,24.0,0.,24.0,0.,24.0,0.,24.0
1979-07-02 02:22:35.220 ,1,1,0.,24.0,0.,24.0,0.,24.0,0.,24.0
1979-07-02 02:22:59.220 ,1,0,0.,24.0,0.,24.0,0.,24.0,0.,24.0
1979-07-02 02:23:23.220 ,0,1,0.,24.0,0.,24.0,0.,24.0,0.,24.0
1979-07-02 02:23:47.220 ,0,0,0.,24.0,0.,24.0,0.,24.0,0.,24.0
1979-07-02 02:24:11.220 ,0,1,1.,24.0,0.,24.0,0.,24.0,0.,24.0
1979-07-02 02:24:35.220 ,0,0,0.,24.0,0.,24.0,0.,24.0,0.,24.0
1979-07-02 02:24:59.220 ,1,1,0.,24.0,0.,24.0,0.,24.0,0.,24.0
1979-07-02 02:25:23.220 ,1,0,0.,24.0,0.,24.0,0.,24.0,0.,24.0
1979-07-02 02:25:47.220 ,2,1,0.,24.0,0.,24.0,0.,24.0,0.,24.0
1979-07-02 02:26:11.220 ,2,0,0.,24.0,0.,24.0,0.,24.0,0.,24.0
1979-07-02 02:26:35.220 ,3,1,0.,24.0,0.,24.0,0.,24.0,0.,24.0
1979-07-02 02:26:59.220 ,3,0,0.,24.0,0.,24.0,0.,24.0,0.,24.0
1979-07-02 02:27:23.220 ,4,1,0.,24.0,0.,24.0,0.,24.0,0.,24.0
1979-07-02 02:27:47.220 ,4,0,0.,24.0,0.,24.0,1.,24.0,0.,24.0
1979-07-02 02:28:11.220 ,5,1,0.,24.0,0.,24.0,0.,24.0,0.,24.0
1979-07-02 02:28:35.220 ,5,0,0.,24.0,0.,24.0,1.,24.0,0.,24.0
1979-07-02 02:28:59.220 ,6,1,0.,24.0,0.,24.0,0.,24.0,0.,24.0
1979-07-02 02:29:23.220 ,0,0,,0,,0,,0,,0
1979-07-02 02:29:32.220 ,0,0,,0,,0,,0,,0
1979-07-02 02:29:32.220 ,0,0,,0,,0,,0,,0
1979-07-02 02:29:32.820 ,0,0,0.,24.0,0.,24.0,0.,24.0,0.,24.0
1979-07-02 02:29:47.220 ,7,1,7.,24.0,0.,24.0,0.,24.0,0.,24.0
1979-07-02 02:30:11.220 ,7,0,25.,24.0,0.,24.0,0.,24.0,0.,24.0
1979-07-02 02:30:35.220 ,7,1,39.,24.0,0.,24.0,0.,24.0,0.,24.0
1979-07-02 02:30:59.220 ,7,0,26.,24.0,0.,24.0,1.,24.0,0.,24.0
1979-07-02 02:31:23.220 ,6,1,12.,24.0,0.,24.0,0.,24.0,0.,24.0
1979-07-02 02:31:47.220 ,6,0,1.,24.0,0.,24.0,0.,24.0,0.,24.0
1979-07-02 02:32:11.220 ,5,1,0.,24.0,0.,24.0,1.,24.0,0.,24.0
1979-07-02 02:32:35.220 ,5,0,0.,24.0,0.,24.0,0.,24.0,0.,24.0
1979-07-02 02:32:59.220 ,4,1,0.,24.0,0.,24.0,0.,24.0,0.,24.0
1979-07-02 02:33:23.220 ,4,0,0.,24.0,0.,24.0,0.,24.0,0.,24.0
1979-07-02 02:33:47.220 ,3,1,0.,24.0,0.,24.0,0.,24.0,0.,24.0
1979-07-02 02:34:11.220 ,0,0,0.,24.0,0.,24.0,0.,24.0,0.,24.0
1979-07-02 02:34:35.220 ,2,1,0.,24.0,0.,24.0,0.,24.0,0.,24.0
1979-07-02 02:34:59.220 ,2,0,1.,24.0,1.,24.0,0.,24.0,0.,24.0